Miscellaneous Local Product
Issued by NWS Hastings, NE

Home | Current Version | Previous Version | Text Only | Print | Product List | Glossary On
Versions: 1 2 3 4 5 6 7 8 9 10 11 12 13 14 15 16 17 18 19 20 21 22 23 24 25 26 27 28 29 30 31 32 33 34 35 36 37 38 39 40 41 42 43 44 45 46 47 48 49 50
000
AXUS43 KGID 030202
MISGRI

GID CWA HOURLY WEATHER ROUNDUP
NATIONAL WEATHER SERVICE HASTINGS NE
900 PM CDT THU JUL 02 2015

NOTE: "FAIR" INDICATES FEW OR NO CLOUDS BELOW 12,000 FEET WITH NO
SIGNIFICANT WEATHER AND/OR OBSTRUCTIONS TO VISIBILITY.

...SOUTH CENTRAL NEBRASKA...

CITY           SKY/WX    TMP DP  RH WIND       PRES   REMARKS
GRAND ISLAND   PTCLDY    70  66  87 NE16      29.96R
HASTINGS       CLEAR     72  65  78 N8        29.95R
KEARNEY        CLEAR     73  63  68 NE10      29.97R
ORD            PTCLDY    69  63  81 E6        29.97R
YORK           HVY RAIN  68  68 100 E9G16     29.93R VSB 1/4
AURORA         MOCLDY    69  68  96 N14       29.95R
LEXINGTON      CLEAR     73  61  66 N6        29.99R
HOLDREGE       CLEAR     75  58  55 N8        29.96R
HEBRON         PTCLDY    72  69  90 NE5       29.90F

...NEBRASKA PANHANDLE...

CITY           SKY/WX    TMP DP  RH WIND       PRES   REMARKS
CHADRON        PTCLDY    74  63  68 E3        30.07R
ALLIANCE       CLEAR     72  61  68 N7        30.09R
SCOTTSBLUFF    CLEAR     76  59  55 NE5       30.09R
SIDNEY         CLEAR     74  58  57 NE5       30.12R

...WESTERN AND NORTH CENTRAL NEBRASKA...

CITY           SKY/WX    TMP DP  RH WIND       PRES   REMARKS
VALENTINE      PTCLDY    73  60  63 NE5       30.01R
AINSWORTH      CLEAR     71  63  75 NE7       30.02R
ONEILL         MOCLDY    68  65  90 E6        30.00R
BROKEN BOW     CLEAR     74  60  61 N7        29.99R
IMPERIAL       CLEAR     75  59  57 N7        30.05R
NORTH PLATTE   CLEAR     73  59  61 N6        30.02R
MCCOOK         CLEAR     77  61  57 N7        30.00R

...EASTERN NEBRASKA...

CITY           SKY/WX    TMP DP  RH WIND       PRES   REMARKS
NORFOLK        CLOUDY    65  63  93 E5        29.97S FOG
SO SIOUX CITY  CLOUDY    66  58  75 E6        29.97S
TEKAMAH        CLOUDY    69  62  78 E3        29.96R
COLUMBUS       CLOUDY    64  61  88 E6        29.96R
ALBION         CLOUDY    66  61  84 E8        29.99R
OMAHA EPPLEY   CLOUDY    69  62  78 E3        29.95R
OFFUTT AFB     CLOUDY    69  64  83 NE5       29.93S
MILLARD        PTCLDY    70  62  76 E3        29.94R
LINCOLN        CLOUDY    70  64  81 E8        29.93R
NEBRASKA CITY  CLOUDY    67  66  94 E3        29.93S
BEATRICE       CLOUDY    71  67  88 E7        29.91R
FALLS CITY     CLOUDY    69  66  90 E9        29.91R

...NORTHERN KANSAS...

CITY           SKY/WX    TMP DP  RH WIND       PRES   REMARKS
GOODLAND       CLEAR     75  57  53 N8        30.05R
HILL CITY      LGT RAIN  81  62  52 NE8       29.96R
NORTON         CLEAR     79  54  41 N8        29.96S
PHILLIPSBURG   CLEAR     84  61  45 N12       29.94R
SMITH CENTER   CLEAR     75  63  64 W7        29.92R
HAYS           CLOUDY    82  63  51 CALM      29.94R
RUSSELL        CLEAR     81  66  60 NW3       29.92R
CONCORDIA      PTCLDY    69  66  90 SE3       29.89F
SALINA         CLEAR     80  69  69 SW6       29.88R
TOPEKA         CLOUDY    73  69  87 NE6       29.90R



USA.gov is the U.S. government's official web portal to all federal, state and local government web resources and services.